Погода в Перекоповке

Украина / Сумская область     50°36′42″N   33°25′29″E
темп.,
°C
ветер,
м/с
пор.,
м/с
влажн.,
%
обл.,
%
осадки,
мм/ч
давл.,
гПа
погр.,
м
9 декабря, чт
чт923:00+4всв4992100 0.1 1010338
02:00+4св489299 0.1 1010355
05:00+4всв489399 0.0 1011361
08:00+4всв4893100 0.0 1012325
11:00+5всв4790100 0.0 1014322
14:00+5всв4689100 0.0 1014325
17:00+5всв4892100 0.0 1016316
20:00+5в479391 0.0 1017321
10 декабря, пт
пт1023:00+5в3695100 0.0 1018242
02:00+5в3697100 0.0 1019221
05:00+5вюв3698100 0.0 1019204
08:00+6юв5995100 0.1 1020351
11:00+7юв51083100 0.1 1020509
14:00+8юв598384 0.1 1020614
17:00+6юв6139596 0.0 1020416
20:00+6юв7149180 0.0 1020497
11 декабря, сб
сб1123:00+6вюв71491100 0.0 1021486
02:00+6вюв81590100 0.0 1021499
05:00+5вюв81789100 0.0 1020496
08:00+4вюв81885100 0.0 1021551
11:00+5вюв91874100 0.0 1021674
14:00+5вюв91670100 0.0 1021671
17:00+4юв8167394 0.0 1022620
20:00+4юв71375100 0.0 1024521
12 декабря, вс
вс1223:00+4юв71276100 0.0 1025392
02:00+3вюв6117998 0.0 1026358
05:00+1вюв5118529 0.0 1026316
08:000вюв51285100 0.0 1027335
11:00+2вюв61273100 0.0 1027434
14:00+3в61270100 0.0 1025495
17:00+2в71470100 0.0 1025489
20:00+2вюв71465100 0.0 1025499
13 декабря, пн
пн1323:00+2вюв71459100 0.0 1024471
02:00+1вюв61359100 0.0 1023503
05:00+1в61360100 0.0 1022506
08:00+1вюв71357100 0.0 1021555
11:00+1вюв61153100 0.0 1021642
14:00+1вюв61053100 0.0 1020650
17:000вюв4962100 0.0 1021428
20:00+1вюв5962100 0.1 1020429